Location: Maccacari
(45.1333°N, 11.1333°E)
Time: 23:36:35
(UTC+00:00)

S-56A Canister/Altair - Pass Details

Date: 24 June 2021
Orbit: 631 x 2501 km, 38.9° (Epoch: 30 July)

Event Time Altitude Azimuth Distance (km) Brightness Sun altitude
Exits shadow 02:22:45 12° 211° (SSW) 1,995 9.0 -9.6°
Maximum altitude 02:26:04 24° 161° (SSE) 1,335 8.5 -9.2°
Drops below altitude 10° 02:29:38 10° 107° (ESE) 2,009 10.1 -8.8°
Sets 02:32:18 0° 93° (E) 2,971 11.2 -8.4°
